{"data":{"norad_id":53548,"epoch":"2026-05-25T01:15:12.493152Z","epoch_age_seconds":70433,"freshness":"FRESH","line1":"1 53548U 22101X   26145.05222793 -.00000233  00000+0  34379-5 0  9998","line2":"2 53548  53.2132  81.3143 0001593  56.0786 304.0358 15.08840096207837","mean_motion":15.08840096,"eccentricity":0.0001593,"inclination_deg":53.2132,"raan_deg":81.3143,"arg_perigee_deg":56.0786,"mean_anomaly_deg":304.0358,"bstar":3.4379e-6,"rev_number":20783,"period_min":95.437548605548,"perigee_km":538.64107723131,"apogee_km":540.84511382974,"semimajor_km":6917.8800955305,"source":"CELESTRAK","updated_at":"2026-05-25T13:38:17.443904Z"}}